MDT,Max TemperatureF,Mean TemperatureF,Min TemperatureF,Max Dew PointF,MeanDew PointF,Min DewpointF,Max Humidity, Mean Humidity, Min Humidity, Max Sea Level PressureIn, Mean Sea Level PressureIn, Min Sea Level PressureIn, Max VisibilityMiles, Mean VisibilityMiles, Min VisibilityMiles, Max Wind SpeedMPH, Mean Wind SpeedMPH, Max Gust SpeedMPH,PrecipitationIn, CloudCover, Events, WindDirDegrees
2011-10-1,84,72,59,34,28,19,34,24,9,30.25,30.20,30.12,10,10,10,12,5,,0.00,1,,223
2011-10-2,80,70,59,39,32,25,42,28,13,30.23,30.19,30.14,20,10,10,14,5,21,0.00,2,Rain-Thunderstorm,241
2011-10-3,80,68,57,37,32,28,42,30,15,30.26,30.18,30.09,20,10,10,14,6,,0.00,1,,255
2011-10-4,80,68,55,37,33,23,44,31,12,30.10,30.02,29.89,20,11,10,12,4,,0.00,2,,220
2011-10-5,75,63,51,41,36,27,62,42,17,29.88,29.79,29.64,10,10,10,17,8,23,0.00,2,,195
2011-10-6,73,60,48,39,28,0,54,32,10,29.78,29.59,29.42,20,11,6,44,11,58,0.00,2,Rain,185
2011-10-7,64,50,37,18,9,-2,45,22,8,29.90,29.84,29.78,10,10,7,22,11,34,0.00,1,,205
2011-10-8,50,42,35,39,29,12,93,63,22,30.19,30.02,29.89,20,10,3,20,10,30,0.00,5,Rain-Snow,344
2011-10-9,53,45,37,37,33,28,87,68,38,30.21,30.14,30.05,20,10,10,12,2,,0.00,4,,123
2011-10-10,66,52,37,37,31,18,93,61,15,30.06,30.00,29.90,20,10,7,10,4,,0.00,1,,324
2011-10-11,68,58,48,34,27,21,54,35,17,29.97,29.90,29.83,20,10,10,31,9,39,0.00,2,,264
2011-10-12,68,58,48,39,25,9,71,35,10,30.14,30.05,29.97,10,10,10,17,7,29,0.00,1,,265
2011-10-13,75,58,41,30,24,10,61,36,9,30.11,30.07,29.98,10,10,10,25,7,33,0.00,1,,292
2011-10-14,66,54,42,32,29,25,53,44,26,30.12,30.09,30.06,20,12,10,10,7,,0.00,1,,335
2011-10-15,82,65,48,54,25,10,58,31,8,30.12,30.07,30.00,20,10,10,20,5,30,0.00,2,,239
2011-10-16,68,55,42,36,31,12,70,48,12,30.22,30.11,30.02,10,10,10,15,4,,0.00,2,,13
2011-10-17,55,46,37,43,34,28,81,64,36,30.28,30.07,29.92,15,10,10,29,7,34,0.00,4,Rain,334
2011-10-18,59,47,35,32,27,16,87,62,19,30.40,30.32,30.26,15,10,10,17,4,23,0.00,2,,330
2011-10-19,60,46,33,27,20,16,65,43,17,30.33,30.19,29.99,20,10,10,10,2,,0.00,0,,276
2011-10-20,71,54,37,27,19,12,65,31,11,30.14,30.03,29.98,10,10,10,17,3,,0.00,0,,327
2011-10-21,71,58,44,27,22,16,43,30,13,30.22,30.17,30.13,10,10,10,14,5,,0.00,2,,353
2011-10-22,68,56,44,28,24,19,50,32,16,30.20,30.18,30.15,10,9,5,25,5,31,0.00,3,,319
2011-10-23,73,60,46,48,19,9,46,23,10,30.20,30.17,30.13,,,,17,5,18,0.00,1,,3
2011-10-24,77,64,50,21,8,-11,30,12,4,30.10,29.99,29.92,,,,17,6,,0.00,4,,279
2011-10-25,60,46,32,36,29,18,100,55,19,30.21,30.08,29.96,20,8,0,18,11,22,0.00,6,Rain-Snow,14
2011-10-26,30,28,26,28,26,25,100,90,80,30.24,30.21,30.18,10,4,0,13,7,,0.00,7,Snow,359
2011-10-27,39,30,21,27,22,16,80,70,49,30.17,30.12,30.08,20,20,20,9,4,,0.00,3,,208
2011-10-28,48,40,32,25,18,14,56,40,27,30.29,30.24,30.16,20,20,20,10,3,,0.00,1,,132
2011-10-29,59,49,39,21,13,1,45,22,11,30.08,30.00,29.92,20,20,20,29,13,40,0.00,5,,275
2011-10-30,62,47,32,27,24,19,75,37,20,30.22,30.17,30.02,20,20,20,16,5,,0.00,1,,275
2011-10-31,69,55,41,27,18,12,45,23,12,30.08,30.02,29.97,,,,28,9,34,0.00,1,,275